Regional Weather Roundup
Issued by NWS

Home | Current Version | Previous Version | Text Only | Print | Product List | Glossary On
Versions: 1 2 3 4 5 6 7 8 9 10 11 12 13 14 15 16 17 18 19 20 21 22 23 24 25 26 27 28
000
ASUS45 KCYS 241210
RWRWY

WYOMING REGIONAL WEATHER ROUNDUP
NATIONAL WEATHER SERVICE CHEYENNE WY
600 AM MDT THU MAY 24 2018

NOTE:  "FAIR" INDICATES FEW OR NO CLOUDS BELOW 12,000 FEET
WITH NO SIGNIFICANT WEATHER AND/OR OBSTRUCTIONS TO VISIBILITY.

WYZ001-241300-
YELLOWSTONE NATIONAL PARK

CITY           SKY/WX    TMP DP  RH WIND       PRES   REMARKS
LK YELLOWSTONE   N/A     35  34  96 CALM      30.21R
6HR MIN TEMP:  35; 6HR MAX TEMP:  37;

W YELLOWSTONE  NOT AVBL

$$
WYZ002>013-054>058-071-098>099-241300-
NORTHERN WYOMING

CITY           SKY/WX    TMP DP  RH WIND       PRES   REMARKS
JACKSON        LGT RAIN  43  42  97 CALM      30.17R
CODY           FAIR      57  42  57 E3        30.01R
GREYBULL       FAIR      53  52  96 CALM      29.97R
6HR MIN TEMP:  52; 6HR MAX TEMP:  59;

WORLAND        FAIR      49  48  97 S7        29.99R
6HR MIN TEMP:  48; 6HR MAX TEMP:  55;

SHERIDAN       FAIR      52  49  89 S5        29.94R
6HR MIN TEMP:  50; 6HR MAX TEMP:  59;

BUFFALO        FAIR      53  46  77 W6        29.99R
6HR MIN TEMP:  50; 6HR MAX TEMP:  59;

GILLETTE       FAIR      50  46  86 SW7       29.94F
6HR MIN TEMP:  46; 6HR MAX TEMP:  56;

NEWCASTLE      FAIR      52  43  71 SE14      29.98S

$$
WYZ014>020-022>026-101>103-241300-
CENTRAL WYOMING

CITY           SKY/WX    TMP DP  RH WIND       PRES   REMARKS
BIG PINEY      FAIR      38  37  97 E6        30.19R WCI  33
6HR MIN TEMP:  38; 6HR MAX TEMP:  47;

PINEDALE       FAIR      37  37 100 CALM      30.21R
DUBOIS         FAIR      43  36  75 W9        30.14R
LANDER         FAIR      46  41  82 NW8       30.06R
6HR MIN TEMP:  46; 6HR MAX TEMP:  53;

RIVERTON       FAIR      49  42  77 SW7       30.07R
6HR MIN TEMP:  47; 6HR MAX TEMP:  55;

CASPER         FAIR      49  42  77 SW9       30.06R
6HR MIN TEMP:  47; 6HR MAX TEMP:  52;

DOUGLAS        FAIR      47  42  83 CALM      30.04S
6HR MIN TEMP:  44; 6HR MAX TEMP:  52;


$$
WYZ021-027>030-104>119-241300-
SOUTHERN WYOMING

CITY           SKY/WX    TMP DP  RH WIND       PRES   REMARKS
EVANSTON       FAIR      43  37  79 S7        30.20R
6HR MIN TEMP:  43; 6HR MAX TEMP:  49;

KEMMERER       FAIR      37  36  93 CALM      30.21R
FORT BRIDGER   FAIR      46  37  71 SW7       30.22S
ROCK SPRINGS   FAIR      43  36  76 SW7       30.19R
6HR MIN TEMP:  43; 6HR MAX TEMP:  48;

DIXON          FAIR      39  33  77 CALM      30.23R
RAWLINS        FAIR      46  35  65 SW7       30.18R
6HR MIN TEMP:  45; 6HR MAX TEMP:  50;

SARATOGA       FAIR      37  32  81 SE7       30.21R WCI  32
LARAMIE        FAIR      37  33  85 SW12      30.19S WCI  29
6HR MIN TEMP:  34; 6HR MAX TEMP:  43;

CHEYENNE       FAIR      47  38  71 W10       30.14R
6HR MIN TEMP:  46; 6HR MAX TEMP:  51;

TORRINGTON     FAIR      45  45 100 S5        30.03R FOG
6HR MIN TEMP:  45; 6HR MAX TEMP:  53;

PINE BLUFFS    FAIR      43  43 100 W5        30.10R

$$




USA.gov is the U.S. government's official web portal to all federal, state and local government web resources and services.